TimeEST,TemperatureF,Dew PointF,Humidity,Sea Level PressureIn,VisibilityMPH,Wind Direction,Wind SpeedMPH,Gust SpeedMPH,PrecipitationIn,Events,Conditions,WindDirDegrees,DateUTC
12:15 AM,33.1,25.7,74,30.37,10.0,Calm,Calm,-,N/A,,Clear,0,2013-02-10 05:15:00
12:35 AM,33.8,25.5,72,30.37,10.0,Calm,Calm,-,N/A,,Clear,0,2013-02-10 05:35:00
12:55 AM,30.4,25.2,81,30.37,10.0,Calm,Calm,-,N/A,,Clear,0,2013-02-10 05:55:00
1:15 AM,29.3,25.5,86,30.37,10.0,Calm,Calm,-,N/A,,Clear,0,2013-02-10 06:15:00
1:35 AM,31.1,27.3,86,30.38,10.0,Calm,Calm,-,N/A,,Clear,0,2013-02-10 06:35:00
1:55 AM,29.8,26.8,88,30.39,10.0,Calm,Calm,-,N/A,,Clear,0,2013-02-10 06:55:00
2:15 AM,30.7,26.8,85,30.39,10.0,Calm,Calm,-,N/A,,Clear,0,2013-02-10 07:15:00
2:35 AM,30.7,27.0,86,30.39,10.0,NW,3.5,-,N/A,,Clear,320,2013-02-10 07:35:00
2:55 AM,30.2,26.6,86,30.39,10.0,Calm,Calm,-,N/A,,Clear,0,2013-02-10 07:55:00
3:15 AM,29.8,27.3,90,30.39,10.0,Calm,Calm,-,N/A,,Clear,0,2013-02-10 08:15:00
3:35 AM,30.9,27.0,85,30.38,10.0,Calm,Calm,-,N/A,,Clear,0,2013-02-10 08:35:00
3:55 AM,31.8,27.9,85,30.39,10.0,Calm,Calm,-,N/A,,Clear,0,2013-02-10 08:55:00
4:15 AM,30.2,27.9,91,30.39,10.0,Calm,Calm,-,N/A,,Clear,0,2013-02-10 09:15:00
4:35 AM,30.9,28.6,91,30.39,10.0,Calm,Calm,-,N/A,,Clear,0,2013-02-10 09:35:00
4:55 AM,30.2,28.2,92,30.39,10.0,Calm,Calm,-,N/A,,Clear,0,2013-02-10 09:55:00
5:15 AM,30.6,28.4,92,30.39,10.0,Calm,Calm,-,N/A,,Clear,0,2013-02-10 10:15:00
5:35 AM,31.6,28.4,88,30.39,10.0,Calm,Calm,-,N/A,,Scattered Clouds,0,2013-02-10 10:35:00
5:55 AM,32.0,28.2,86,30.40,10.0,Calm,Calm,-,N/A,,Clear,0,2013-02-10 10:55:00
6:15 AM,32.0,28.4,87,30.41,10.0,Calm,Calm,-,N/A,,Scattered Clouds,0,2013-02-10 11:15:00
6:35 AM,32.0,29.5,90,30.43,10.0,Calm,Calm,-,N/A,,Scattered Clouds,0,2013-02-10 11:35:00
6:55 AM,31.1,29.1,92,30.43,10.0,Calm,Calm,-,N/A,,Clear,0,2013-02-10 11:55:00
7:15 AM,31.8,28.8,88,30.44,10.0,Calm,Calm,-,N/A,,Clear,0,2013-02-10 12:15:00
7:35 AM,32.0,27.9,85,30.44,10.0,Calm,Calm,-,N/A,,Scattered Clouds,0,2013-02-10 12:35:00
7:55 AM,32.0,29.1,89,30.44,10.0,Calm,Calm,-,N/A,,Scattered Clouds,0,2013-02-10 12:55:00
8:15 AM,33.4,28.2,81,30.44,10.0,Calm,Calm,-,N/A,,Clear,0,2013-02-10 13:15:00
8:35 AM,34.0,28.4,80,30.45,10.0,NNW,3.5,-,N/A,,Clear,340,2013-02-10 13:35:00
8:55 AM,34.3,27.9,77,30.45,10.0,North,3.5,-,N/A,,Clear,360,2013-02-10 13:55:00
9:15 AM,38.5,27.3,64,30.45,10.0,Calm,Calm,-,N/A,,Clear,0,2013-02-10 14:15:00
9:35 AM,41.2,25.2,53,30.46,10.0,Calm,Calm,-,N/A,,Clear,0,2013-02-10 14:35:00
9:55 AM,40.8,28.0,60,30.46,10.0,Calm,Calm,-,N/A,,Clear,0,2013-02-10 14:55:00
10:15 AM,41.9,27.5,57,30.45,10.0,Calm,Calm,-,N/A,,Clear,0,2013-02-10 15:15:00
10:35 AM,46.2,22.1,39,30.45,10.0,SSE,3.5,-,N/A,,Clear,150,2013-02-10 15:35:00
10:55 AM,46.6,22.8,39,30.45,10.0,Calm,Calm,-,N/A,,Clear,0,2013-02-10 15:55:00
11:15 AM,47.1,21.0,36,30.44,10.0,South,3.5,-,N/A,,Clear,180,2013-02-10 16:15:00
11:35 AM,49.1,21.2,33,30.43,10.0,SE,5.8,-,N/A,,Clear,140,2013-02-10 16:35:00
11:55 AM,49.5,21.4,33,30.41,10.0,SSW,5.8,-,N/A,,Clear,200,2013-02-10 16:55:00
12:15 PM,50.5,19.4,29,30.40,10.0,SSE,5.8,-,N/A,,Clear,150,2013-02-10 17:15:00
12:35 PM,50.2,19.9,30,30.39,10.0,ESE,4.6,-,N/A,,Clear,110,2013-02-10 17:35:00
1:15 PM,50.4,20.7,31,30.37,10.0,Calm,Calm,-,N/A,,Clear,0,2013-02-10 18:15:00
1:35 PM,52.3,21.6,30,30.34,10.0,East,4.6,-,N/A,,Scattered Clouds,100,2013-02-10 18:35:00
1:55 PM,53.6,20.1,27,30.32,10.0,SE,9.2,-,N/A,,Clear,130,2013-02-10 18:55:00
2:15 PM,53.6,20.1,27,30.31,10.0,ESE,6.9,-,N/A,,Clear,120,2013-02-10 19:15:00
2:35 PM,54.7,21.0,27,30.31,10.0,SSE,5.8,-,N/A,,Clear,160,2013-02-10 19:35:00
2:55 PM,54.9,18.3,24,30.32,10.0,South,6.9,-,N/A,,Clear,180,2013-02-10 19:55:00
3:15 PM,54.5,18.3,24,30.31,10.0,SSE,5.8,-,N/A,,Clear,160,2013-02-10 20:15:00
3:35 PM,54.0,19.2,26,30.30,10.0,SE,8.1,-,N/A,,Scattered Clouds,130,2013-02-10 20:35:00
4:15 PM,53.2,21.2,29,30.28,10.0,ESE,5.8,-,N/A,,Clear,120,2013-02-10 21:15:00
4:35 PM,52.7,21.9,30,30.29,10.0,SSE,4.6,-,N/A,,Scattered Clouds,150,2013-02-10 21:35:00
4:55 PM,52.5,22.1,31,30.29,10.0,SSE,5.8,-,N/A,,Mostly Cloudy,160,2013-02-10 21:55:00
5:15 PM,52.0,22.1,31,30.28,10.0,SE,3.5,-,N/A,,Overcast,140,2013-02-10 22:15:00
5:35 PM,51.4,22.3,32,30.28,10.0,Calm,Calm,-,N/A,,Overcast,0,2013-02-10 22:35:00
5:55 PM,50.9,25.0,36,30.29,10.0,Calm,Calm,-,N/A,,Overcast,0,2013-02-10 22:55:00
6:15 PM,48.6,29.5,48,30.29,10.0,Calm,Calm,-,N/A,,Overcast,0,2013-02-10 23:15:00
6:35 PM,47.8,32.9,56,30.28,10.0,Calm,Calm,-,N/A,Rain,Light Rain,0,2013-02-10 23:35:00
6:55 PM,46.6,35.2,65,30.29,10.0,Calm,Calm,-,N/A,Rain,Light Rain,0,2013-02-10 23:55:00
7:15 PM,43.7,40.1,87,30.29,7.0,Calm,Calm,-,0.02,Rain,Rain,0,2013-02-11 00:15:00
7:35 PM,42.8,40.3,91,30.29,7.0,Calm,Calm,-,0.04,Rain,Rain,0,2013-02-11 00:35:00
7:55 PM,42.8,39.4,88,30.31,7.0,North,3.5,-,0.07,Rain,Rain,350,2013-02-11 00:55:00
8:15 PM,42.1,40.1,93,30.31,7.0,North,3.5,-,0.03,Rain,Rain,350,2013-02-11 01:15:00
8:35 PM,42.3,41.0,95,30.31,7.0,NW,3.5,-,0.04,Rain,Rain,320,2013-02-11 01:35:00
8:55 PM,42.1,41.0,96,30.32,7.0,NW,4.6,-,0.06,Rain,Light Rain,310,2013-02-11 01:55:00
9:15 PM,41.9,41.0,97,30.30,5.0,Calm,Calm,-,0.01,,Unknown,0,2013-02-11 02:15:00
9:35 PM,41.7,41.2,98,30.30,4.0,Calm,Calm,-,0.03,,Unknown,0,2013-02-11 02:35:00
9:55 PM,41.5,41.0,98,30.29,5.0,Calm,Calm,-,0.03,,Overcast,0,2013-02-11 02:55:00
10:15 PM,41.5,41.2,99,30.27,2.5,Calm,Calm,-,0.01,,Unknown,0,2013-02-11 03:15:00
10:35 PM,41.4,41.2,99,30.25,4.0,Calm,Calm,-,0.02,,Unknown,0,2013-02-11 03:35:00
10:55 PM,41.4,41.4,100,30.24,4.0,NNW,4.6,-,0.02,,Overcast,340,2013-02-11 03:55:00
11:15 PM,41.4,41.4,100,30.23,4.0,NNW,4.6,-,0.01,,Overcast,340,2013-02-11 04:15:00
11:35 PM,41.2,41.2,100,30.22,5.0,Calm,Calm,-,0.01,,Overcast,0,2013-02-11 04:35:00
11:55 PM,41.2,41.2,100,30.21,7.0,Calm,Calm,-,0.01,,Light Drizzle,0,2013-02-11 04:55:00